Regional Weather Roundup
Issued by NWS Charleston, WV

Home | Current Version | Previous Version | Graphics & Text | Print | Product List | Glossary On
Versions: 1 2 3 4 5 6 7 8 9 10 11 12 13 14 15 16 17 18 19 20 21 22 23 24 25 26 27 28 29 30 31 32 33 34 35 36 37 38 39 40 41 42 43 44 45 46 47 48 49 50
000
ASUS41 KRLX 050210
RWRRLX
West Virginia Regional Weather Roundup
National Weather Service Charleston WV
1000 PM EDT MON MAY 04 2015

Note: "fair" indicates few or no clouds below 12,000 feet with no
significant weather and/or obstructions to visibility.

WVZ003-050300-
Northern Panhandle of West Virginia

CITY           SKY/WX    TMP DP  RH WIND       PRES   REMARKS
WHEELING       CLOUDY    65  56  72 N7        30.22R
$$

WVZ009-050300-
Northwest West Virginia

CITY           SKY/WX    TMP DP  RH WIND       PRES   REMARKS
PARKERSBURG    CLOUDY    73  52  47 N5        30.23R
$$

WVZ006-050300-
Western West Virginia

CITY           SKY/WX    TMP DP  RH WIND       PRES   REMARKS
HUNTINGTON     MOCLDY    71  51  49 CALM      30.20R
$$

WVZ015-050300-
West Central West Virginia

CITY           SKY/WX    TMP DP  RH WIND       PRES   REMARKS
CHARLESTON     PTCLDY    68  51  54 CALM      30.21R
$$

WVZ022-031-050300-
North Central West Virginia

CITY           SKY/WX    TMP DP  RH WIND       PRES   REMARKS
CLARKSBURG     CLEAR     67  48  50 CALM      30.21R
MORGANTOWN     CLOUDY    74  45  35 CALM      30.22R
$$

WVZ025-035-042-045-050300-
Southern West Virginia

CITY           SKY/WX    TMP DP  RH WIND       PRES   REMARKS
BECKLEY        CLEAR     65  45  48 CALM      30.29R
LOGAN            N/A     72  46  40 CALM      30.22R
BLUEFIELD      CLEAR     68  42  38 W5        30.31R
LEWISBURG      CLEAR     65  45  49 CALM      30.28R
$$

WVZ047-050300-
Northern Mountains of West Virginia

CITY           SKY/WX    TMP DP  RH WIND       PRES   REMARKS
ELKINS           N/A     58  48  69 CALM      30.26R
$$

WVZ052-050300-
Eastern Panhandle of West Virginia

CITY           SKY/WX    TMP DP  RH WIND       PRES   REMARKS
MARTINSBURG    CLEAR     69  50  50 CALM      30.17R
PETERSBURG     PTCLDY    62  48  61 W5        30.20R
$$


USA.gov is the U.S. government's official web portal to all federal, state and local government web resources and services.